DELTA 1 DEB

Satellite information

Favourite Embed

Satellite Type and Status

DEBRISIN ORBIT

Key statistics

Satellite DELTA 1 DEB at a glance.

Uptime

19286

Days in orbit

Revolutions

≈ 14.7

Per day

Orbit

SSO

Sun Synchronous Orbit

Inclination

98.5

Latest

Satellite identification and parameters

Extended collection of information and parameters for DELTA 1 DEB.

Object identification

Identified? True

Debris? True

Object name: DELTA 1 DEB

International designator: 1972-058KA

Object number (NORAD): 42567

Object ID (CCSDS): 42567

Country: UNITED STATES OF AMERICA (US)

Current information (Y/N): Y

RCS size: SMALL

Orbital parameters

Period: 98.211 minutes

Inclination: 98.4739 deg

SMA: 7051.285 km

Apoapsis: 753.567 km

Periapsis: 592.733 km

RAAN: 249.6537 deg

Eccentricy: 0.0114046

Argument of periapsis: 172.9235 deg

Mean anomaly: 187.3611 deg

Mean motion: 14.66224197 rev/day

Mean motion (dot): 0.00001918 rev/day2

B* drag term: 0.00032582 1/REarth

Two-line elements (TLE)

Creation date: May 12, 2025, 2:31 a.m.

Reference frame: TEME

Reference center: EARTH

Epoch: May 11, 2025, 7:01 p.m. UTC

TLE line 0: 0 DELTA 1 DEB

TLE line 1: 1 42567U 72058KA 25131.79277900 .00001918 00000-0 32582-3 0 9991

TLE line 2: 2 42567 98.4739 249.6537 0114046 172.9235 187.3611 14.66224197611857

Live tracking on map

Real-time ground track for satellite DELTA 1 DEB.

In-orbit conjunctions

A list of the most updated potential collisions computed for object DELTA 1 DEB.

Target Orbit TCA Probability of collision Miss distance Type
COSMOS 44 LEO 2024-11-04 12:29:52 0.0001794924 206.0 (m) PAYLOAD

Associated space launch

Earth observation satellite

DELTA 1 DEB was lifted into orbit during the mission ‘Delta 0900 | Landsat 1’, on board a Delta 0900 space rocket.

The launch took place on July 23, 1972, 6:06 p.m. from Space Launch Complex 2W.

For more information about the launch, click the button.

Launch to space Delta 0900 | Landsat 1
Delta 0900 | Landsat 1

Agency: N/A

Status: Launch Successful

Launch date: July 23, 1972, 6:06 p.m. UTC

Rocket: Delta 0900

Launch pad: Space Launch Complex 2W

Location: Vandenberg SFB, CA, USA

...

Latest news about this satellite

There are no fresh news available about this satellite. Check back as we update our databases every day.


Newsletter sign-up

Weekly statistics, charts and insights to help you stay on top of the space industry.